Total_Precipitation_Accumulation
1.82 2.29 2.80 3.27 3.98 4.96 5.98 6.45 6.32 5.76 5.28 4.91 4.60 4.34 3.98 3.67 3.53 3.23 2.91 2.88 2.87 2.92 3.23 2.95 3.34 3.35 3.45 3.46 3.44 3.63 3.59 3.35 3.49 4.07 4.06 3.59 3.27 3.24 3.09 2.94 3.08 2.91 2.87
1.89 2.39 2.97 3.34 3.69 4.28 5.12 5.53 5.25 4.69 4.09 3.90 3.83 3.80 3.71 3.28 3.05 2.99 3.00 2.69 2.72 2.83 2.91 3.12 2.98 3.06 3.29 3.17 3.14 3.48 3.46 3.09 3.23 3.86 4.18 3.99 3.99 3.66 2.93 2.94 3.07 3.02 3.09
1.68 2.40 2.96 3.24 3.50 3.78 3.87 4.02 3.96 3.55 3.27 3.21 3.21 3.25 3.45 3.20 2.90 2.82 2.79 2.56 2.48 2.49 2.67 2.76 2.91 3.08 2.98 3.08 3.16 3.24 3.38 3.30 3.21 3.35 3.99 3.98 3.84 3.70 3.36 2.99 2.93 3.08 3.30
1.53 2.26 2.59 2.72 2.78 2.87 2.76 2.86 2.97 2.91 2.92 2.85 2.90 2.77 2.64 2.64 2.53 2.54 2.50 2.49 2.37 2.31 2.26 2.42 2.70 2.87 2.83 3.09 2.81 2.97 3.29 3.41 3.17 3.23 3.33 3.35 3.49 3.69 3.50 3.11 2.81 2.82 2.90
1.24 1.55 1.68 1.84 1.92 1.98 2.02 2.27 2.65 2.83 2.77 2.70 2.84 2.83 2.50 2.36 2.28 2.32 2.49 2.49 2.37 2.24 2.13 2.24 2.50 2.69 2.77 2.89 2.90 3.21 3.16 3.11 3.09 3.11 3.23 3.39 3.35 3.19 3.24 3.25 2.97 2.78 2.58
0.92 1.10 1.22 1.33 1.40 1.45 1.56 1.82 2.27 2.55 2.53 2.53 2.56 2.48 2.42 2.39 2.35 2.32 2.39 2.32 2.26 2.35 2.45 2.41 2.49 2.49 2.58 2.67 2.78 3.00 3.03 3.02 3.07 2.96 2.89 3.19 3.36 3.36 3.40 3.24 2.94 2.78 2.52
0.83 0.97 1.17 1.27 1.23 1.18 1.29 1.47 1.78 1.96 1.97 2.07 2.24 2.34 2.40 2.37 2.22 2.18 2.17 2.11 1.92 2.05 2.33 2.50 2.60 2.62 2.65 2.61 2.71 2.76 2.80 2.88 3.01 2.91 2.80 2.82 2.88 3.12 3.36 3.39 3.01 2.77 2.50
0.74 0.82 0.98 1.02 1.02 1.08 1.14 1.27 1.43 1.53 1.63 1.73 1.93 2.13 2.17 2.16 2.12 2.28 2.14 1.98 1.76 1.71 1.93 2.22 2.36 2.39 2.38 2.40 2.88 2.67 2.60 2.77 2.84 2.74 3.06 2.91 2.69 2.91 3.12 3.30 3.39 3.18 3.00
0.62 0.66 0.77 0.83 0.86 1.02 1.11 1.15 1.25 1.37 1.48 1.57 1.86 2.04 2.06 2.03 2.07 2.17 2.07 1.87 1.86 1.74 1.81 1.88 2.20 2.34 2.34 2.41 2.67 2.61 2.56 2.72 2.69 2.81 3.08 3.02 2.84 2.86 2.88 3.14 3.51 3.74 3.54
0.56 0.62 0.67 0.75 0.74 0.77 0.93 1.05 1.12 1.31 1.50 1.59 1.66 1.69 1.87 1.86 1.85 1.79 1.74 1.81 1.84 1.79 1.86 1.97 1.99 2.12 2.29 2.43 2.62 2.48 2.43 2.58 2.64 2.79 2.96 2.93 2.80 2.84 2.76 2.90 3.22 3.55 3.64
0.64 0.63 0.70 0.72 0.69 0.68 0.83 0.99 1.11 1.25 1.34 1.36 1.40 1.50 1.61 1.61 1.59 1.58 1.55 1.66 1.71 1.76 1.79 1.87 1.97 2.01 2.13 2.42 2.75 2.64 2.63 2.66 2.66 2.65 2.82 2.89 3.03 3.06 2.93 2.93 2.99 3.17 3.42
0.82 0.80 0.83 0.81 0.79 0.80 0.85 0.97 1.00 1.06 1.12 1.16 1.24 1.32 1.46 1.50 1.50 1.53 1.64 1.75 1.77 1.75 1.69 1.78 1.87 1.81 1.94 2.24 2.55 2.70 2.82 2.93 2.87 2.89 3.04 3.03 3.04 3.00 2.89 2.95 2.95 2.98 3.26
0.84 1.01 1.05 0.92 0.86 0.85 0.90 0.96 0.97 0.99 1.01 1.08 1.14 1.21 1.36 1.54 1.64 1.68 1.73 1.84 1.91 1.88 1.86 1.88 1.84 1.98 2.12 2.21 2.37 2.54 2.58 2.69 2.76 2.89 2.95 2.91 3.02 2.92 2.91 2.79 2.77 2.81 2.97
0.86 1.02 1.17 0.98 0.85 0.81 0.84 0.89 0.90 0.85 0.87 1.05 1.21 1.31 1.52 1.73 1.82 1.85 1.90 1.92 1.95 1.93 1.96 1.97 1.98 2.10 2.20 2.16 2.21 2.35 2.45 2.51 2.58 2.71 2.81 2.87 2.89 2.93 3.06 2.91 2.87 3.01 3.13
0.86 0.90 1.02 1.02 0.91 0.86 0.85 0.90 0.99 1.03 1.05 1.25 1.43 1.65 1.84 1.91 1.96 2.03 2.03 2.08 2.09 1.97 2.08 2.14 2.12 2.13 2.05 1.93 2.16 2.29 2.29 2.48 2.52 2.52 2.50 2.59 2.82 2.89 2.93 2.71 2.86 3.07 3.09
0.91 1.03 1.09 1.08 1.10 1.06 1.06 1.14 1.21 1.31 1.46 1.66 1.80 1.87 1.95 2.00 1.95 1.96 1.95 2.09 2.14 2.19 2.31 2.33 2.35 2.28 2.00 2.17 2.19 2.20 2.33 2.46 2.45 2.45 2.39 2.29 2.31 2.40 2.52 2.55 2.58 2.71 2.85
1.09 1.20 1.25 1.24 1.28 1.29 1.37 1.51 1.48 1.56 1.74 1.91 2.08 2.08 2.05 2.05 2.00 2.04 2.05 2.06 2.20 2.33 2.37 2.36 2.39 2.34 2.32 2.28 2.00 1.93 1.95 2.05 2.09 2.08 2.08 1.88 1.79 2.14 2.19 2.35 2.32 2.21 2.25
1.09 1.22 1.30 1.31 1.27 1.32 1.44 1.68 1.79 1.79 1.94 2.07 2.17 2.23 2.26 2.33 2.39 2.48 2.48 2.52 2.58 2.62 2.57 2.51 2.52 2.57 2.50 2.47 2.11 1.99 1.88 1.88 1.86 1.83 1.81 1.85 1.85 1.90 2.09 2.17 2.14 2.04 1.99
1.19 1.34 1.35 1.32 1.34 1.53 1.60 1.67 1.80 1.84 2.02 2.21 2.36 2.43 2.50 2.55 2.58 2.61 2.73 2.89 3.04 3.10 3.02 2.97 3.00 2.97 2.99 2.98 2.57 2.40 2.14 2.04 1.92 1.93 1.98 2.01 1.86 1.92 1.96 2.01 1.98 1.93 1.94
1.32 1.47 1.53 1.48 1.57 1.84 1.90 2.00 2.09 2.15 2.23 2.33 2.49 2.69 2.83 2.89 2.86 2.93 3.12 3.31 3.49 3.53 3.54 3.56 3.55 3.45 3.40 3.35 2.91 2.71 2.43 2.36 2.28 2.30 2.15 2.05 1.85 1.78 1.73 1.75 1.80 1.71 1.70
1.30 1.46 1.53 1.54 1.61 1.83 2.03 2.32 2.46 2.51 2.51 2.54 2.67 2.84 3.00 3.12 3.16 3.28 3.39 3.58 3.74 3.73 3.69 3.65 3.60 3.48 3.38 3.24 2.87 2.69 2.47 2.48 2.49 2.38 2.25 2.09 1.92 1.71 1.65 1.60 1.59 1.63 1.72
1.37 1.44 1.57 1.64 1.74 1.86 2.11 2.39 2.58 2.72 2.79 2.79 2.94 3.04 3.10 2.96 2.92 3.21 3.44 3.68 3.90 3.87 3.80 3.83 3.66 3.49 3.36 3.08 2.84 2.64 2.48 2.55 2.59 2.50 2.37 2.22 2.07 1.80 1.71 1.55 1.53 1.61 1.59
1.40 1.41 1.48 1.60 1.69 1.76 1.96 2.37 2.54 2.65 2.75 2.84 2.90 3.04 3.07 3.06 3.12 3.34 3.53 3.76 3.88 3.81 3.71 3.67 3.56 3.36 3.17 3.02 2.77 2.53 2.43 2.47 2.42 2.51 2.61 2.39 2.20 1.98 1.81 1.77 1.76 1.65 1.53
1.35 1.43 1.51 1.63 1.69 1.60 1.73 1.94 2.17 2.34 2.44 2.51 2.54 2.54 2.66 2.82 3.06 3.37 3.46 3.53 3.57 3.59 3.57 3.45 3.31 3.26 3.24 3.17 2.91 2.58 2.32 2.29 2.32 2.38 2.48 2.36 2.19 1.95 1.81 1.84 1.79 1.65 1.62
1.33 1.40 1.58 1.58 1.62 1.67 1.66 1.70 1.75 1.96 2.14 2.19 2.21 2.30 2.42 2.60 2.82 3.05 3.20 3.15 3.18 3.38 3.28 3.05 2.88 2.79 2.72 2.80 2.70 2.39 2.23 2.17 2.26 2.34 2.40 2.35 2.23 2.06 1.91 1.84 1.86 1.87 1.83
1.40 1.41 1.48 1.50 1.51 1.62 1.69 1.66 1.75 1.91 1.98 1.93 1.95 1.98 2.05 2.24 2.41 2.57 2.68 2.72 2.50 2.56 2.47 2.33 2.19 2.08 2.07 2.07 1.91 1.74 1.69 1.77 1.96 2.06 2.22 2.27 2.19 2.09 2.02 1.97 1.96 1.94 1.87